This is the latest recevied weather packets stored in our database for station/object SR5NLK-1. If no packets are shown the sender has not sent any weather packets the latest 10 day(s).
| Time | Temp. | Humidity | Pressure | Rain* | Wind** | Luminosity | Snow |
|---|---|---|---|---|---|---|---|
| 1777626918 | 19.44° C | 35% | 988.1 hPa | 0 mm | - | - | - |
| 1777626909 | 19.44° C | 35% | 988.1 hPa | 0 mm | - | - | - |
| 1777626609 | 18.89° C | 34% | 993.2 hPa | 0 mm | - | - | - |
| 1777626309 | 19.44° C | 34% | 979 hPa | 0 mm | - | - | - |
| 1777626009 | 19.44° C | 33% | 986.7 hPa | 0 mm | - | - | - |
| 1777625709 | 20° C | 33% | 989.7 hPa | 0 mm | - | - | - |
| 1777625409 | 20° C | 33% | 1005.8 hPa | 0 mm | - | - | - |
| 1777625110 | 20° C | 33% | 994.4 hPa | 0 mm | - | - | - |
| 1777624928 | 20° C | 32% | 1006.3 hPa | 0 mm | - | - | - |
| 1777624809 | 20° C | 32% | 978.4 hPa | 0 mm | - | - | - |
| 1777624509 | 21.11° C | 31% | 1003.7 hPa | 0 mm | - | - | - |
| 1777624209 | 21.67° C | 30% | 1009.4 hPa | 0 mm | - | - | - |
| 1777624110 | 21.67° C | 30% | 1016.6 hPa | 0 mm | - | - | - |
| 1777623909 | 21.67° C | 30% | 992.7 hPa | 0 mm | - | - | - |
| 1777623609 | 21.67° C | 30% | 1016.6 hPa | 0 mm | - | - | - |
| 1777623309 | 22.22° C | 29% | 1009 hPa | 0 mm | - | - | - |
| 1777623009 | 22.78° C | 29% | 1005.8 hPa | 0 mm | - | - | - |
| 1777622949 | 22.78° C | 29% | 1003.8 hPa | 0 mm | - | - | - |
| 1777622709 | 22.78° C | 28% | 999.5 hPa | 0 mm | - | - | - |
| 1777622410 | 22.22° C | 28% | 1007.9 hPa | 0 mm | - | - | - |
| 1777622109 | 22.78° C | 27% | 989.1 hPa | 0 mm | - | - | - |
| 1777621810 | 23.33° C | 26% | 991.1 hPa | 0 mm | - | - | - |
| 1777621509 | 23.89° C | 26% | 989 hPa | 0 mm | - | - | - |
| 1777621210 | 23.89° C | 25% | 993.1 hPa | 0 mm | - | - | - |
| 1777620969 | 25° C | 24% | 993.4 hPa | 0 mm | - | - | - |
* Rain latest hour (hover to see other rain measurements)
** Current wind speed in m/s (hover to see current wind gust speed)